Time,TemperatureF,DewpointF,PressureIn,WindDirection,WindDirectionDegrees,WindSpeedMPH,WindSpeedGustMPH,Humidity,HourlyPrecipIn,Conditions,Clouds,dailyrainin,SoftwareType,DateUTC
2013-08-08 15:46:00,32.0,32.0,31.73,SSW,202,0.0,0.0,100,0.00,,---,0.00,VWS V14.01,2013-08-08 19:46:00,
2013-08-08 15:47:00,77.6,69.8,29.53,WNW,292,0.2,0.2,77,0.16,,---,0.00,VWS V14.01,2013-08-08 19:47:00,
2013-08-08 15:50:00,77.4,69.2,29.52,SSW,202,1.1,1.1,76,0.16,,---,0.00,VWS V14.01,2013-08-08 19:50:00,
2013-08-08 15:52:00,77.4,69.2,29.52,SW,225,0.0,1.1,76,0.00,,---,0.00,VWS V14.01,2013-08-08 19:52:00,
2013-08-08 15:55:00,77.4,69.2,29.52,SSW,202,0.4,1.1,76,0.00,,---,0.00,VWS V14.01,2013-08-08 19:55:00,
2013-08-08 15:57:00,77.4,69.2,29.52,SSW,202,0.4,0.4,76,0.00,,---,0.00,VWS V14.01,2013-08-08 19:57:00,
2013-08-08 16:00:00,77.2,69.1,29.52,SSE,158,0.4,0.4,76,0.00,,---,0.00,VWS V14.01,2013-08-08 20:00:00,
2013-08-08 16:02:00,77.2,69.0,29.52,SSE,158,2.7,2.7,76,0.00,CLR,,0.00,WeatherDisplay:10.37,2013-08-08 20:02:00,
2013-08-08 16:05:00,77.4,69.6,29.52,SSE,158,0.2,0.4,77,0.00,,---,0.00,VWS V14.01,2013-08-08 20:05:00,
2013-08-08 16:07:00,77.4,69.6,29.52,SSE,158,0.2,0.2,77,0.00,,---,0.00,VWS V14.01,2013-08-08 20:07:00,
2013-08-08 16:10:00,77.2,69.4,29.52,SSE,158,1.3,1.3,77,0.00,,---,0.00,VWS V14.01,2013-08-08 20:10:00,
2013-08-08 16:12:00,77.2,69.4,29.52,NW,315,0.2,1.3,77,0.00,,---,0.00,VWS V14.01,2013-08-08 20:12:00,
2013-08-08 16:15:00,77.0,69.6,29.51,ENE,68,0.2,1.3,78,0.00,,---,0.00,VWS V14.01,2013-08-08 20:15:00,
2013-08-08 16:17:00,77.0,69.6,29.52,ENE,68,2.7,2.7,78,0.00,CLR,,0.00,WeatherDisplay:10.37,2013-08-08 20:17:00,
2013-08-08 16:20:00,76.7,69.3,29.51,West,270,0.2,0.9,78,0.00,,---,0.00,VWS V14.01,2013-08-08 20:20:00,
2013-08-08 16:22:00,76.5,69.1,29.51,West,270,2.3,2.3,78,0.00,CLR,,0.00,WeatherDisplay:10.37,2013-08-08 20:22:00,
2013-08-08 16:25:00,76.5,69.1,29.52,West,270,0.2,0.4,78,0.00,,---,0.00,VWS V14.01,2013-08-08 20:25:00,
2013-08-08 16:27:00,76.3,68.9,29.52,West,270,2.3,0.0,78,0.00,CLR,,0.00,WeatherDisplay:10.37,2013-08-08 20:27:00,
2013-08-08 16:30:00,76.5,69.1,29.52,WSW,248,0.0,0.2,78,0.00,,---,0.00,VWS V14.01,2013-08-08 20:30:00,
2013-08-08 16:32:00,76.6,69.6,29.52,North,0,2.3,2.3,79,0.00,CLR,,0.00,WeatherDisplay:10.37,2013-08-08 20:32:00,
2013-08-08 16:35:00,76.9,69.9,29.52,SSE,158,0.2,0.9,79,0.00,,---,0.00,VWS V14.01,2013-08-08 20:35:00,
2013-08-08 16:37:00,76.8,69.8,29.52,SSE,158,2.7,0.0,79,0.00,CLR,,0.00,WeatherDisplay:10.37,2013-08-08 20:37:00,
2013-08-08 16:40:00,76.9,69.9,29.52,SSE,158,0.0,0.4,79,0.00,,---,0.00,VWS V14.01,2013-08-08 20:40:00,
2013-08-08 16:42:00,77.0,70.0,29.51,SSE,158,2.7,2.7,79,0.00,CLR,,0.00,WeatherDisplay:10.37,2013-08-08 20:42:00,
2013-08-08 16:45:00,77.0,70.0,29.51,SSE,158,0.4,0.7,79,0.00,,---,0.00,VWS V14.01,2013-08-08 20:45:00,
2013-08-08 16:47:00,77.0,70.0,29.51,SSE,158,2.7,0.0,79,0.00,CLR,,0.00,WeatherDisplay:10.37,2013-08-08 20:47:00,
2013-08-08 16:50:00,77.2,70.2,29.51,SSW,202,0.4,0.7,79,0.00,,---,0.00,VWS V14.01,2013-08-08 20:50:00,
2013-08-08 16:52:00,77.2,70.2,29.51,SSW,202,2.7,2.7,79,0.00,CLR,,0.00,WeatherDisplay:10.37,2013-08-08 20:52:00,
2013-08-08 16:55:00,77.6,70.2,29.51,SSE,158,0.0,0.7,78,0.00,,---,0.00,VWS V14.01,2013-08-08 20:55:00,
2013-08-08 16:57:00,77.5,70.1,29.51,SSE,158,2.3,2.3,78,0.00,CLR,,0.00,WeatherDisplay:10.37,2013-08-08 20:57:00,
2013-08-08 17:00:00,77.8,70.8,29.51,SSE,158,0.0,0.4,79,0.00,,---,0.00,VWS V14.01,2013-08-08 21:00:00,
2013-08-08 17:02:00,77.8,70.4,29.51,SW,225,0.0,0.7,78,0.00,,---,0.00,VWS V14.01,2013-08-08 21:02:00,
2013-08-08 17:05:00,77.6,70.2,29.51,WSW,248,0.2,0.7,78,0.00,,---,0.00,VWS V14.01,2013-08-08 21:05:00,
2013-08-08 17:07:00,77.6,70.2,29.51,WSW,248,0.0,0.2,78,0.00,,---,0.00,VWS V14.01,2013-08-08 21:07:00,
2013-08-08 17:10:00,77.4,70.0,29.52,WNW,292,0.0,0.2,78,0.00,,---,0.00,VWS V14.01,2013-08-08 21:10:00,
2013-08-08 17:12:00,77.4,70.0,29.52,WNW,292,0.0,0.0,78,0.00,,---,0.00,VWS V14.01,2013-08-08 21:12:00,
2013-08-08 17:15:00,77.4,70.0,29.51,WNW,292,0.0,0.0,78,0.00,,---,0.00,VWS V14.01,2013-08-08 21:15:00,
2013-08-08 17:17:00,77.4,70.3,29.51,SSW,202,2.7,0.0,79,0.00,CLR,,0.00,WeatherDisplay:10.37,2013-08-08 21:17:00,
2013-08-08 17:20:00,77.2,70.2,29.51,SSW,202,0.0,0.4,79,0.00,,---,0.00,VWS V14.01,2013-08-08 21:20:00,
2013-08-08 17:22:00,77.2,70.2,29.51,SSW,202,0.0,0.0,79,0.00,,---,0.00,VWS V14.01,2013-08-08 21:22:00,
2013-08-08 17:25:00,77.0,70.0,29.51,SSW,202,0.2,0.2,79,0.00,,---,0.00,VWS V14.01,2013-08-08 21:25:00,
2013-08-08 17:27:00,77.0,70.0,29.51,SW,225,0.2,0.2,79,0.00,,---,0.00,VWS V14.01,2013-08-08 21:27:00,
2013-08-08 17:30:00,77.0,70.0,29.51,SW,225,0.0,0.2,79,0.00,,---,0.00,VWS V14.01,2013-08-08 21:30:00,
2013-08-08 17:32:00,76.8,69.8,29.52,SW,225,2.7,0.0,79,0.00,CLR,,0.00,WeatherDisplay:10.37,2013-08-08 21:32:00,
2013-08-08 17:35:00,76.9,69.9,29.51,SW,225,0.0,0.0,79,0.00,,---,0.00,VWS V14.01,2013-08-08 21:35:00,
2013-08-08 17:37:00,76.8,70.2,29.52,WSW,248,2.7,0.0,80,0.00,CLR,,0.00,WeatherDisplay:10.37,2013-08-08 21:37:00,
2013-08-08 17:40:00,76.9,70.3,29.51,WSW,248,0.0,0.9,80,0.00,,---,0.00,VWS V14.01,2013-08-08 21:40:00,
2013-08-08 17:42:00,76.7,70.1,29.51,WSW,248,0.0,0.4,80,0.00,,---,0.00,VWS V14.01,2013-08-08 21:42:00,
2013-08-08 17:45:00,76.7,70.1,29.51,WSW,248,0.0,0.4,80,0.00,,---,0.00,VWS V14.01,2013-08-08 21:45:00,
2013-08-08 17:47:00,76.5,69.9,29.51,WSW,248,0.0,0.0,80,0.00,,---,0.00,VWS V14.01,2013-08-08 21:47:00,
2013-08-08 17:50:00,76.5,69.9,29.51,WSW,248,0.0,0.0,80,0.00,,---,0.00,VWS V14.01,2013-08-08 21:50:00,
2013-08-08 17:52:00,76.3,70.1,29.51,WSW,248,0.0,0.0,81,0.00,,---,0.00,VWS V14.01,2013-08-08 21:52:00,
2013-08-08 17:55:00,76.1,69.8,29.51,WSW,248,0.0,0.0,81,0.00,,---,0.00,VWS V14.01,2013-08-08 21:55:00,
2013-08-08 17:57:00,76.1,69.8,29.51,WSW,248,0.0,0.0,81,0.00,,---,0.00,VWS V14.01,2013-08-08 21:57:00,
2013-08-08 18:00:00,76.0,69.8,29.52,WSW,248,0.0,0.0,81,0.01,,---,0.01,VWS V14.01,2013-08-08 22:00:00,
2013-08-08 18:02:00,75.8,69.9,29.52,WSW,248,0.0,0.0,82,0.01,,---,0.01,VWS V14.01,2013-08-08 22:02:00,
2013-08-08 18:05:00,75.8,69.9,29.51,WSW,248,0.0,0.0,82,0.01,,---,0.01,VWS V14.01,2013-08-08 22:05:00,
2013-08-08 18:08:00,75.6,70.1,29.52,WSW,248,0.0,0.0,83,0.02,,---,0.02,VWS V14.01,2013-08-08 22:08:00,
2013-08-08 18:10:00,75.6,70.1,29.51,WSW,248,0.0,0.0,83,0.02,,---,0.02,VWS V14.01,2013-08-08 22:10:00,
2013-08-08 18:13:00,74.9,70.1,29.51,WSW,248,0.0,0.4,85,0.02,,---,0.02,VWS V14.01,2013-08-08 22:13:00,
2013-08-08 18:15:00,74.7,69.9,29.51,WSW,248,0.0,0.4,85,0.02,,---,0.02,VWS V14.01,2013-08-08 22:15:00,
2013-08-08 18:18:00,74.5,69.7,29.52,WSW,248,2.7,0.0,85,0.02,,,0.02,WeatherDisplay:10.37,2013-08-08 22:18:00,
2013-08-08 18:20:00,74.5,69.7,29.52,WSW,248,0.0,0.0,85,0.02,,---,0.02,VWS V14.01,2013-08-08 22:20:00,
2013-08-08 18:23:00,74.5,69.7,29.51,WSW,248,0.0,0.0,85,0.02,,---,0.02,VWS V14.01,2013-08-08 22:23:00,
2013-08-08 18:25:00,74.2,69.4,29.52,WSW,248,0.0,0.0,85,0.02,,---,0.02,VWS V14.01,2013-08-08 22:25:00,
2013-08-08 18:28:00,74.2,70.1,29.52,WSW,248,0.0,0.0,87,0.02,,---,0.02,VWS V14.01,2013-08-08 22:28:00,
2013-08-08 18:30:00,74.2,70.1,29.52,WSW,248,0.0,0.0,87,0.02,,---,0.02,VWS V14.01,2013-08-08 22:30:00,
2013-08-08 18:33:00,74.1,70.0,29.51,WSW,248,2.7,0.0,87,0.02,CLR,,0.02,WeatherDisplay:10.37,2013-08-08 22:33:00,
2013-08-08 18:35:00,74.2,70.1,29.51,WSW,248,0.0,0.0,87,0.02,,---,0.02,VWS V14.01,2013-08-08 22:35:00,
2013-08-08 18:38:00,74.0,69.9,29.51,WSW,248,0.0,0.0,87,0.02,,---,0.02,VWS V14.01,2013-08-08 22:38:00,
2013-08-08 18:40:00,74.0,69.9,29.52,WSW,248,0.0,0.0,87,0.02,,---,0.02,VWS V14.01,2013-08-08 22:40:00,
2013-08-08 18:43:00,73.8,69.7,29.52,WSW,248,0.0,0.0,87,0.02,,---,0.02,VWS V14.01,2013-08-08 22:43:00,
2013-08-08 18:45:00,73.8,69.7,29.52,WSW,248,0.0,0.0,87,0.02,,---,0.02,VWS V14.01,2013-08-08 22:45:00,
2013-08-08 18:48:00,73.8,70.0,29.51,WSW,248,0.0,0.0,88,0.02,,---,0.02,VWS V14.01,2013-08-08 22:48:00,
2013-08-08 18:50:00,73.8,70.0,29.52,WSW,248,0.0,0.0,88,0.02,,---,0.02,VWS V14.01,2013-08-08 22:50:00,
2013-08-08 18:53:00,73.6,69.8,29.51,WSW,248,2.7,0.0,88,0.02,CLR,,0.02,WeatherDisplay:10.37,2013-08-08 22:53:00,
2013-08-08 18:55:00,73.6,69.8,29.52,WSW,248,0.0,0.0,88,0.02,,---,0.02,VWS V14.01,2013-08-08 22:55:00,
2013-08-08 18:58:00,73.6,69.8,29.52,WSW,248,0.0,0.0,88,0.02,,---,0.02,VWS V14.01,2013-08-08 22:58:00,
2013-08-08 19:00:00,73.4,70.0,29.52,WSW,248,0.0,0.0,89,0.02,,---,0.02,VWS V14.01,2013-08-08 23:00:00,
2013-08-08 19:03:00,73.6,70.2,29.52,WSW,248,0.0,0.0,89,0.01,,---,0.00,VWS V14.01,2013-08-08 23:03:00,
2013-08-08 19:05:00,73.4,70.0,29.52,WSW,248,0.0,0.0,89,0.01,,---,0.02,VWS V14.01,2013-08-08 23:05:00,
2013-08-08 19:08:00,73.4,70.0,29.52,WSW,248,2.7,0.0,89,0.00,CLR,,0.02,WeatherDisplay:10.37,2013-08-08 23:08:00,
2013-08-08 19:10:00,73.3,69.9,29.52,WSW,248,0.0,0.0,89,0.01,,---,0.02,VWS V14.01,2013-08-08 23:10:00,
2013-08-08 19:13:00,73.3,69.9,29.52,WSW,248,0.0,0.0,89,0.00,,---,0.02,VWS V14.01,2013-08-08 23:13:00,
2013-08-08 19:15:00,73.3,69.9,29.52,WSW,248,0.0,0.0,89,0.00,,---,0.02,VWS V14.01,2013-08-08 23:15:00,
2013-08-08 19:18:00,73.1,69.7,29.52,WSW,248,0.0,0.0,89,0.00,,---,0.02,VWS V14.01,2013-08-08 23:18:00,
2013-08-08 19:20:00,73.1,69.7,29.52,WSW,248,0.0,0.0,89,0.00,,---,0.02,VWS V14.01,2013-08-08 23:20:00,
2013-08-08 19:23:00,73.1,69.7,29.52,WSW,248,0.0,0.0,89,0.00,,---,0.02,VWS V14.01,2013-08-08 23:23:00,
2013-08-08 19:25:00,73.1,69.7,29.52,WSW,248,0.0,0.0,89,0.00,,---,0.02,VWS V14.01,2013-08-08 23:25:00,
2013-08-08 19:28:00,73.0,69.3,29.53,WSW,248,2.3,0.0,88,0.00,CLR,,0.02,WeatherDisplay:10.37,2013-08-08 23:28:00,
2013-08-08 19:30:00,73.1,69.3,29.52,WSW,248,0.0,0.0,88,0.00,,---,0.02,VWS V14.01,2013-08-08 23:30:00,
2013-08-08 19:33:00,72.9,69.1,29.52,WSW,248,0.0,0.0,88,0.00,,---,0.02,VWS V14.01,2013-08-08 23:33:00,
2013-08-08 19:35:00,72.9,69.1,29.52,WSW,248,0.0,0.0,88,0.00,,---,0.02,VWS V14.01,2013-08-08 23:35:00,
2013-08-08 19:38:00,72.7,68.9,29.52,WSW,248,2.7,0.0,88,0.00,CLR,,0.02,WeatherDisplay:10.37,2013-08-08 23:38:00,
2013-08-08 19:40:00,72.7,68.9,29.52,WSW,248,0.0,0.0,88,0.00,,---,0.02,VWS V14.01,2013-08-08 23:40:00,
2013-08-08 19:43:00,72.5,69.1,29.52,WSW,248,0.4,0.4,89,0.00,,---,0.02,VWS V14.01,2013-08-08 23:43:00,
2013-08-08 19:45:00,72.5,69.1,29.52,WSW,248,0.4,0.4,89,0.00,,---,0.02,VWS V14.01,2013-08-08 23:45:00,
2013-08-08 19:48:00,72.4,69.0,29.52,WSW,248,0.0,0.4,89,0.00,,---,0.00,VWS V14.01,2013-08-08 23:48:00,
2013-08-08 19:50:00,72.4,69.0,29.52,WSW,248,0.0,0.4,89,0.00,,---,0.02,VWS V14.01,2013-08-08 23:50:00,
2013-08-08 19:53:00,72.1,68.7,29.52,WSW,248,2.7,0.0,89,0.00,CLR,,0.02,WeatherDisplay:10.37,2013-08-08 23:53:00,
2013-08-08 19:55:00,72.2,68.8,29.52,WSW,248,0.0,0.0,89,0.00,,---,0.02,VWS V14.01,2013-08-08 23:55:00,
2013-08-08 19:58:00,72.0,68.6,29.52,WSW,248,0.0,0.0,89,0.00,,---,0.02,VWS V14.01,2013-08-08 23:58:00,
2013-08-08 20:00:00,72.0,68.6,29.52,WSW,248,0.0,0.0,89,0.00,,---,0.02,VWS V14.01,2013-08-09 00:00:00,
2013-08-08 20:03:00,72.0,68.6,29.52,WSW,248,0.0,0.0,89,0.00,,---,0.02,VWS V14.01,2013-08-09 00:03:00,
2013-08-08 20:05:00,72.0,68.6,29.52,WSW,248,0.0,0.0,89,0.00,,---,0.02,VWS V14.01,2013-08-09 00:05:00,
2013-08-08 20:09:00,71.8,68.4,29.52,WSW,248,0.0,0.0,89,0.00,,---,0.00,VWS V14.01,2013-08-09 00:09:00,
2013-08-08 20:10:00,71.8,68.4,29.52,WSW,248,0.0,0.0,89,0.00,,---,0.02,VWS V14.01,2013-08-09 00:10:00,
2013-08-08 20:14:00,71.6,68.2,29.53,WSW,248,2.3,0.0,89,0.00,CLR,,0.02,WeatherDisplay:10.37,2013-08-09 00:14:00,
2013-08-08 20:15:00,71.6,68.2,29.52,WSW,248,0.0,0.0,89,0.00,,---,0.02,VWS V14.01,2013-08-09 00:15:00,
2013-08-08 20:19:00,71.6,68.2,29.52,WSW,248,0.0,0.0,89,0.00,,---,0.02,VWS V14.01,2013-08-09 00:19:00,
2013-08-08 20:20:00,71.5,68.1,29.52,WSW,248,0.0,0.0,89,0.00,,---,0.02,VWS V14.01,2013-08-09 00:20:00,
2013-08-08 20:24:00,71.5,68.1,29.52,WSW,248,0.0,0.0,89,0.00,,---,0.02,VWS V14.01,2013-08-09 00:24:00,
2013-08-08 20:25:00,71.5,68.1,29.52,WSW,248,0.0,0.0,89,0.00,,---,0.02,VWS V14.01,2013-08-09 00:25:00,
2013-08-08 20:29:00,71.5,68.1,29.52,WSW,248,0.0,0.0,89,0.00,,---,0.00,VWS V14.01,2013-08-09 00:29:00,
2013-08-08 20:30:00,71.5,68.1,29.52,WSW,248,0.0,0.0,89,0.00,,---,0.02,VWS V14.01,2013-08-09 00:30:00,
2013-08-08 20:35:00,71.3,67.9,29.53,WSW,248,0.0,0.0,89,0.00,,---,0.02,VWS V14.01,2013-08-09 00:35:00,
2013-08-08 20:40:00,71.3,67.9,29.53,WSW,248,0.4,0.7,89,0.00,,---,0.02,VWS V14.01,2013-08-09 00:40:00,
2013-08-08 20:45:00,71.1,67.7,29.53,WSW,248,0.0,0.4,89,0.00,,---,0.02,VWS V14.01,2013-08-09 00:45:00,
2013-08-08 20:50:00,70.9,67.5,29.53,WSW,248,0.0,0.0,89,0.00,,---,0.02,VWS V14.01,2013-08-09 00:50:00,
2013-08-08 20:55:00,70.7,67.6,29.54,WSW,248,0.0,0.0,90,0.00,,---,0.02,VWS V14.01,2013-08-09 00:55:00,
2013-08-08 21:00:00,70.6,67.5,29.54,WSW,248,0.0,0.0,90,0.00,,---,0.02,VWS V14.01,2013-08-09 01:00:00,
2013-08-08 21:05:00,70.5,67.4,29.53,WSW,248,2.7,0.0,90,0.00,RA,,0.00,WeatherDisplay:10.37,2013-08-09 01:05:00,
2013-08-08 21:10:00,70.4,67.3,29.54,WSW,248,0.0,0.0,90,0.00,,---,0.00,VWS V14.01,2013-08-09 01:10:00,
2013-08-08 21:15:00,70.2,67.1,29.54,WSW,248,0.0,0.0,90,0.00,,---,0.02,VWS V14.01,2013-08-09 01:15:00,
2013-08-08 21:20:00,70.2,67.1,29.54,WSW,248,0.0,0.0,90,0.00,,---,0.02,VWS V14.01,2013-08-09 01:20:00,
2013-08-08 21:25:00,70.2,67.1,29.54,WSW,248,0.0,0.0,90,0.00,,---,0.02,VWS V14.01,2013-08-09 01:25:00,
2013-08-08 21:30:00,70.0,66.9,29.54,WSW,248,0.0,0.0,90,0.00,,---,0.02,VWS V14.01,2013-08-09 01:30:00,
2013-08-08 21:35:00,70.0,66.9,29.54,WSW,248,2.3,0.0,90,0.00,CLR,,0.00,WeatherDisplay:10.37,2013-08-09 01:35:00,
2013-08-08 21:40:00,69.8,66.7,29.54,WSW,248,2.3,0.0,90,0.00,CLR,,0.00,WeatherDisplay:10.37,2013-08-09 01:40:00,
2013-08-08 21:45:00,69.8,66.7,29.54,WSW,248,0.0,0.0,90,0.00,,---,0.02,VWS V14.01,2013-08-09 01:45:00,
2013-08-08 21:50:00,69.8,66.7,29.54,WSW,248,2.7,0.0,90,0.00,CLR,,0.00,WeatherDisplay:10.37,2013-08-09 01:50:00,
2013-08-08 21:55:00,69.6,66.9,29.54,WSW,248,2.7,0.0,91,0.00,CLR,,0.00,WeatherDisplay:10.37,2013-08-09 01:55:00,
2013-08-08 22:00:00,69.8,67.1,29.54,WSW,248,0.0,0.0,91,0.00,,---,0.02,VWS V14.01,2013-08-09 02:00:00,
2013-08-08 22:05:00,69.7,67.0,29.54,WSW,248,0.0,0.0,91,0.00,,---,0.02,VWS V14.01,2013-08-09 02:05:00,
2013-08-08 22:10:00,69.7,67.0,29.54,WSW,248,0.0,0.0,91,0.00,,---,0.02,VWS V14.01,2013-08-09 02:10:00,
2013-08-08 22:15:00,69.5,66.8,29.54,WSW,248,0.0,0.0,91,0.00,,---,0.02,VWS V14.01,2013-08-09 02:15:00,
2013-08-08 22:20:00,69.5,66.8,29.54,WSW,248,0.0,0.0,91,0.00,,---,0.02,VWS V14.01,2013-08-09 02:20:00,
2013-08-08 22:25:00,69.5,66.8,29.54,WSW,248,0.0,0.4,91,0.00,,---,0.02,VWS V14.01,2013-08-09 02:25:00,
2013-08-08 22:30:00,69.5,66.8,29.54,WSW,248,0.0,0.0,91,0.00,,---,0.02,VWS V14.01,2013-08-09 02:30:00,
2013-08-08 22:35:00,69.4,66.7,29.54,WSW,248,2.7,0.0,91,0.00,CLR,,0.00,WeatherDisplay:10.37,2013-08-09 02:35:00,
2013-08-08 22:40:00,69.5,66.8,29.54,WSW,248,0.0,0.0,91,0.00,,---,0.02,VWS V14.01,2013-08-09 02:40:00,
2013-08-08 22:45:00,69.1,66.4,29.54,WSW,248,0.0,0.4,91,0.00,,---,0.02,VWS V14.01,2013-08-09 02:45:00,
2013-08-08 22:50:00,69.1,66.4,29.53,WSW,248,0.0,0.4,91,0.00,,---,0.00,VWS V14.01,2013-08-09 02:50:00,
2013-08-08 22:51:00,69.1,66.3,29.53,WSW,248,2.7,0.0,91,0.00,CLR,,0.00,WeatherDisplay:10.37,2013-08-09 02:51:00,
2013-08-08 22:55:00,69.1,66.4,29.53,WSW,248,0.0,0.0,91,0.00,,---,0.00,VWS V14.01,2013-08-09 02:55:00,
2013-08-08 22:56:00,69.1,66.3,29.53,WSW,248,2.7,0.0,91,0.00,CLR,,0.00,WeatherDisplay:10.37,2013-08-09 02:56:00,
2013-08-08 23:00:00,68.9,66.2,29.53,WSW,248,0.0,0.2,91,0.00,,---,0.00,VWS V14.01,2013-08-09 03:00:00,
2013-08-08 23:01:00,68.9,66.2,29.53,WSW,248,2.7,0.0,91,0.00,CLR,,0.00,WeatherDisplay:10.37,2013-08-09 03:01:00,
2013-08-08 23:05:00,68.9,66.2,29.53,WSW,248,0.0,0.0,91,0.00,,---,0.00,VWS V14.01,2013-08-09 03:05:00,
2013-08-08 23:06:00,68.9,66.2,29.53,WSW,248,0.0,0.0,91,0.00,,---,0.00,VWS V14.01,2013-08-09 03:06:00,
2013-08-08 23:10:00,68.9,66.2,29.53,WSW,248,0.0,0.0,91,0.00,,---,0.00,VWS V14.01,2013-08-09 03:10:00,
2013-08-08 23:11:00,68.7,66.0,29.53,WSW,248,2.3,0.0,91,0.00,CLR,,0.00,WeatherDisplay:10.37,2013-08-09 03:11:00,